This demonstration page uses our WeatherBlox Daily Observations layout. Learn more.

40.92945, -100.16068

Hourly Observations for October 29, 2019

Temp ( °F °C ) Dew Point ( °F °C ) Humidity (%) Winds ( mph kmh ) Pressure ( in mb ) Visibility ( mi km ) Precip ( " mm )
12:15 am 00:15 Clear 19 -7.5 17 -8.6 92 92 W 6 9 30.3 1026 10 16.0934 0 0
12:35 am 00:35 Clear 18 -8 15 -9.2 91 91 W 3 6 30.31 1026 10 16.0934 0 0
12:55 am 00:55 Clear 16 -8.7 14 -9.9 91 91 Calm 30.31 1026 10 16.0934 0 0
1:15 am 01:15 Clear 16 -8.7 15 -9.6 93 93 NW 5 7 30.31 1026 10 16.0934 0 0
1:35 am 01:35 Clear 17 -8.4 15 -9.5 92 92 WNW 3 6 30.31 1027 10 16.0934 0 0
1:55 am 01:55 Clear 17 -8.3 15 -9.4 92 92 Calm 30.31 1027 10 16.0934 0 0
2:15 am 02:15 Clear 18 -7.6 17 -8.5 93 93 Calm 30.31 1026 10 16.0934 0 0
2:35 am 02:35 Clear 19 -7.5 17 -8.5 93 93 Calm 30.3 1026 10 16.0934 0 0
2:55 am 02:55 Clear 19 -7.3 17 -8.3 93 93 Calm 30.3 1026 10 16.0934 0 0
3:15 am 03:15 Clear 19 -7.2 17 -8.2 93 93 Calm 30.3 1026 10 16.0934 0 0
3:35 am 03:35 Clear 20 -6.7 18 -7.6 93 93 Calm 30.3 1026 10 16.0934 0 0
3:55 am 03:55 Clear 20 -6.5 19 -7.4 93 93 NNW 5 7 30.29 1026 10 16.0934 0 0
4:15 am 04:15 Mostly Cloudy 22 -5.8 20 -6.8 93 93 NNW 5 7 30.28 1025 10 16.0934 0 0
4:35 am 04:35 Cloudy 22 -5.5 20 -6.6 92 92 NNW 3 6 30.26 1025 10 16.0934 0 0
4:55 am 04:55 Cloudy 23 -5.2 20 -6.4 91 91 Calm 30.27 1025 10 16.0934 0 0
5:15 am 05:15 Mostly Cloudy 23 -5 21 -6.2 91 91 NNW 5 7 30.26 1025 10 16.0934 0 0
5:35 am 05:35 Mostly Cloudy 23 -4.8 21 -6.3 89 89 WNW 3 6 30.28 1025 10 16.0934 0 0
5:55 am 05:55 Cloudy 24 -4.5 22 -5.7 91 91 SW 5 7 30.3 1026 10 16.0934 0 0
6:15 am 06:15 Cloudy 24 -4.5 21 -6 89 89 SW 3 6 30.31 1027 10 16.0934 0 0
6:35 am 06:35 Cloudy 24 -4.3 22 -5.8 89 89 Calm 30.32 1027 10 16.0934 0 0
6:55 am 06:55 Cloudy 24 -4.3 22 -5.8 89 89 Calm 30.32 1027 10 16.0934 0 0
7:15 am 07:15 Cloudy 24 -4.5 22 -5.8 91 91 WNW 3 6 30.32 1027 10 16.0934 0 0
7:35 am 07:35 Mostly Cloudy 24 -4.3 21 -5.9 89 89 WNW 5 7 30.33 1027 10 16.0934 0 0
7:55 am 07:55 Mostly Cloudy 24 -4.5 21 -6 89 89 NW 6 9 30.33 1027 10 16.0934 0 0
8:15 am 08:15 Partly Cloudy 24 -4.5 21 -6 89 89 NNW 6 9 30.33 1027 10 16.0934 0 0
8:35 am 08:35 Partly Cloudy 24 -4.5 21 -6 89 89 NNW 7 11 30.34 1028 10 16.0934 0 0
8:55 am 08:55 Cloudy 25 -4.1 20 -6.5 84 84 N 8 13 30.34 1027 10 16.0934 0 0
9:15 am 09:15 Cloudy 25 -4 20 -6.8 81 81 N 10 17 30.35 1028 10 16.0934 0 0
9:35 am 09:35 Cloudy 25 -3.7 22 -5.7 86 86 NNE 15 24 30.35 1028 10 16.0934 0 0
9:55 am 09:55 Cloudy 26 -3.2 23 -5.1 87 87 N 14 22 30.34 1027 10 16.0934 0 0
10:15 am 10:15 Cloudy 27 -2.6 24 -4.7 86 86 N 14 22 30.34 1028 10 16.0934 0 0
10:35 am 10:35 Cloudy 28 -2.3 23 -4.8 83 83 NNE 15 24 30.35 1028 10 16.0934 0 0
10:55 am 10:55 Cloudy 27 -2.8 21 -6 79 79 NNE 20 31 30.38 1029 10 16.0934 0 0
11:15 am 11:15 Cloudy 28 -2.5 21 -6.2 76 76 NNE 13 20 30.38 1029 10 16.0934 0 0
11:35 am 11:35 Cloudy 29 -1.9 22 -5.7 76 76 NNE 16 26 30.39 1029 10 16.0934 0 0
11:55 am 11:55 Cloudy 29 -1.9 21 -6.1 73 73 NNE 18 30 30.39 1029 10 16.0934 0 0
12:15 pm 12:15 Cloudy 29 -1.7 21 -6.1 72 72 NNE 17 28 30.39 1029 10 16.0934 0 0
12:35 pm 12:35 Cloudy 29 -1.7 20 -6.5 70 70 NNE 17 28 30.39 1029 10 16.0934 0 0
12:50 pm 12:50 Mostly Cloudy 29 -1.4 21 -6.3 70 70 NE 17 28 30.38 1029 10 16.0934 0 0
1:15 pm 13:15 Cloudy 29 -1.5 21 -5.9 72 72 NNE 17 28 30.38 1029 10 16.0934 0 0
1:35 pm 13:35 Cloudy 29 -1.5 20 -6.6 69 69 NNE 16 26 30.38 1029 10 16.0934 0 0
1:55 pm 13:55 Cloudy 29 -1.5 21 -6.3 70 70 NNE 16 26 30.38 1029 10 16.0934 0 0
2:15 pm 14:15 Cloudy 29 -1.5 20 -6.4 70 70 NNE 16 26 30.37 1029 10 16.0934 0 0
2:35 pm 14:35 Cloudy 29 -1.5 20 -6.5 69 69 NE 16 26 30.37 1029 10 16.0934 0 0
2:55 pm 14:55 Cloudy 29 -1.6 20 -6.7 69 69 NNE 15 24 30.37 1029 10 16.0934 0 0
3:15 pm 15:15 Cloudy 29 -1.8 20 -6.9 68 68 NNE 17 28 30.38 1029 10 16.0934 0 0
3:35 pm 15:35 Cloudy 29 -1.6 20 -6.8 68 68 NNE 17 28 30.37 1029 10 16.0934 0 0
3:55 pm 15:55 Cloudy 28 -2.1 19 -7 69 69 NNE 15 24 30.39 1029 10 16.0934 0 0
4:15 pm 16:15 Cloudy 28 -2 19 -7.1 68 68 NNE 14 22 30.39 1029 10 16.0934 0 0
4:35 pm 16:35 Cloudy 28 -2.2 19 -7.3 68 68 NNE 13 20 30.4 1029 10 16.0934 0 0
4:55 pm 16:55 Cloudy with Light Snow 28 -2.4 20 -6.9 72 72 NNE 14 22 30.4 1030 7 11.26538 0 0
5:15 pm 17:15 Cloudy with Light Snow 27 -2.8 21 -6.1 78 78 NNE 12 19 30.42 1030 5 8.0467 0 0
5:35 pm 17:35 Cloudy with Light Snow 26 -3.3 21 -6 82 82 N 13 20 30.42 1030 4 6.43736 0 0
5:55 pm 17:55 Cloudy with Light Snow 26 -3.6 22 -5.7 86 86 NNE 10 17 30.42 1030 2.5 4.02335 0 0
6:15 pm 18:15 Cloudy with Light Snow 25 -4 22 -5.8 87 87 NNE 12 19 30.43 1030 2 3.21868 0 0
6:35 pm 18:35 Cloudy with Light Snow 25 -4.1 22 -5.7 89 89 NNE 10 17 30.43 1030 3 4.82802 0 0
6:55 pm 18:55 Cloudy with Light Snow 24 -4.5 21 -6 89 89 NNE 10 17 30.43 1031 5 8.0467 0 0
7:15 pm 19:15 Cloudy with Light Snow 24 -4.5 21 -6.2 88 88 NNE 12 19 30.44 1031 10 16.0934 0 0
7:35 pm 19:35 Cloudy 24 -4.5 20 -6.5 86 86 N 10 17 30.45 1031 10 16.0934 0 0
7:55 pm 19:55 Mostly Cloudy 24 -4.5 20 -6.4 87 87 N 9 15 30.45 1031 10 16.0934 0 0
8:15 pm 20:15 Mostly Cloudy 24 -4.7 21 -6.3 89 89 N 9 15 30.46 1031 10 16.0934 0 0
8:35 pm 20:35 Cloudy 24 -4.7 20 -6.5 87 87 N 9 15 30.47 1032 10 16.0934 0 0
8:55 pm 20:55 Cloudy 24 -4.5 20 -6.7 85 85 NNE 9 15 30.46 1032 10 16.0934 0 0
9:15 pm 21:15 Mostly Cloudy 24 -4.5 19 -7 83 83 NNE 8 13 30.47 1032 10 16.0934 0 0
9:35 pm 21:35 Cloudy 24 -4.3 19 -7 82 82 N 8 13 30.48 1032 10 16.0934 0 0
9:55 pm 21:55 Cloudy 24 -4.2 19 -7 81 81 N 9 15 30.49 1033 10 16.0934 0 0
10:15 pm 22:15 Cloudy 25 -4.1 18 -7.9 75 75 N 14 22 30.49 1033 10 16.0934 0 0
10:35 pm 22:35 Cloudy with Light Snow 24 -4.4 18 -8 76 76 NNE 14 22 30.5 1033 7 11.26538 0 0
10:55 pm 22:55 Cloudy with Light Snow 23 -4.9 18 -8 79 79 N 12 19 30.52 1033 5 8.0467 0 0
11:15 pm 23:15 Cloudy with Light Snow 22 -5.4 17 -8.1 82 82 N 10 17 30.52 1034 7 11.26538 0 0
11:35 pm 23:35 Cloudy with Light Snow 22 -5.5 17 -8.2 82 82 N 12 19 30.53 1034 7 11.26538 0 0
11:55 pm 23:55 Cloudy with Light Snow 22 -5.7 18 -7.7 86 86 N 12 19 30.54 1034 3 4.82802 0 0

Powered by AerisWeather